sat.trackr.live / text

‹ back to catalog

KUIPER-00074

NORAD 64821 · 2025-151F

PAYLOAD ACTIVE UNKNOWN

§ Identity

Operator
Country
US
Launch date
2025-07-16
Launch site
AFETR
Launch vehicle
Mass (kg)
RCS (m²)

External: N2YO · Heavens-Above · Gunter

§ Orbital elements

Epoch: 2026-07-28T15:36:39.006144Z

Period
88.03 min
Inclination
51.8590°
Eccentricity
0.0006604
Mean motion
16.35865824 rev/d
Perigee alt
172.5 km
Apogee alt
181.2 km
Semi-major
6,555.0 km
B*
1.7831e-3
RAAN
285.3762°
Arg perigee
313.9083°
Mean anomaly
46.1400°
Rev number
5,771

§ Raw data

KUIPER-000741 64821U 25151F   26209.65045146  .15326501  12365-4  17831-2 0  99912 64821  51.8590 285.3762 0006604 313.9083  46.1400 16.35865824 57710

JSON: /api/v1/satellites/64821 · /tle

For live sub-satellite position, see the globe view (requires WebGL).

§ Visibility from observer

Set your observer location to see the next 7 days of passes ≥ 10°. The values pass through the URL so the page stays shareable.

No JS? Fill the form by hand. The geolocation button needs JavaScript.